GW1596 Weather Reports


time (UTC)temp
C
wind
direction
speed
KPH
gust
KPH
rain 1hr
cm
rain 24hr
cm
rain mn
cm
humidity
%
barometer
mb
20260505092734 17 233 8.0 16.1 0.00 0.00 0.00 59 1012.5
20260505092112 17 247 6.4 11.3 0.00 0.00 0.00 58 1012.1
20260505091543 17 244 8.0 9.7 0.00 0.00 0.00 59 1012.1
20260505090932 17 243 6.4 9.7 0.00 0.00 0.00 59 1012.1
20260505090330 17 240 9.7 12.9 0.00 0.00 0.00 58 1012.1
20260505085725 18 219 6.4 11.3 0.00 0.00 0.00 58 1012.1
20260505085123 18 205 1.6 9.7 0.00 0.00 0.00 59 1012.1
20260505084548 18 238 8.0 12.9 0.00 0.00 0.00 57 1012.1
20260505083930 18 235 9.7 14.5 0.00 0.00 0.00 56 1012.1
20260505082713 18 245 8.0 12.9 0.00 0.00 0.00 57 1011.8
20260505081509 18 247 9.7 11.3 0.00 0.00 0.00 56 1011.8
20260505080952 18 260 12.9 16.1 0.00 0.00 0.00 55 1011.8
20260505080308 18 222 11.3 17.7 0.00 0.00 0.00 56 1011.5
20260505075729 17 241 9.7 14.5 0.00 0.00 0.00 59 1011.8
20260505075111 17 254 11.3 12.9 0.00 0.00 0.00 60 1011.5
20260505073939 17 227 3.2 12.9 0.00 0.00 0.00 59 1011.5
20260505073351 17 239 6.4 6.4 0.00 0.00 0.00 60 1011.1
20260505072150 17 237 4.8 9.7 0.00 0.00 0.00 62 1011.5
20260505070926 16 233 6.4 11.3 0.00 0.00 0.00 64 1011.1
20260505070310 16 243 6.4 6.4 0.00 0.00 0.00 64 1011.5
20260505065740 16 227 4.8 4.8 0.00 0.00 0.00 65 1011.5
20260505064531 16 227 3.2 4.8 0.00 0.00 0.00 66 1011.5
20260505063912 16 231 3.2 6.4 0.00 0.00 0.00 67 1011.5
20260505063352 16 225 3.2 4.8 0.00 0.00 0.00 68 1011.8
20260505062752 16 228 3.2 6.4 0.00 0.00 0.00 69 1011.8
20260505062120 15 240 6.4 6.4 0.00 0.00 0.00 70 1011.8
20260505060932 13 219 3.2 4.8 0.00 0.00 0.00 81 1011.5
20260505060347 13 198 0.0 4.8 0.00 0.00 0.00 86 1011.8
20260505055730 12 117 1.6 3.2 0.00 0.00 0.00 89 1011.8
20260505055120 12 163 1.6 3.2 0.00 0.00 0.00 93 1011.8
20260505054545 12 153 0.0 1.6 0.00 0.00 0.00 94 1011.8
20260505053930 11 112 0.0 1.6 0.00 0.00 0.00 95 1011.8
20260505053309 11 112 0.0 0.0 0.00 0.00 0.00 96 1011.8
20260505051537 11 112 0.0 0.0 0.00 0.00 0.00 96 1011.8
20260505050326 11 112 0.0 0.0 0.00 0.00 0.00 96 1011.8
20260505041526 11 112 0.0 0.0 0.00 0.00 0.00 95 1011.5
20260505040919 11 112 0.0 0.0 0.00 0.00 0.00 95 1011.5
20260505035138 11 112 0.0 0.0 0.00 0.00 0.00 94 1011.5
20260505034556 11 112 0.0 0.0 0.00 0.00 0.00 94 1011.5
20260505033913 11 112 0.0 0.0 0.00 0.00 0.00 94 1011.1
20260505033320 11 112 1.6 1.6 0.00 0.00 0.00 93 1011.1
20260505032719 11 112 1.6 1.6 0.00 0.00 0.00 93 1011.1
20260505032128 12 112 1.6 1.6 0.00 0.00 0.00 92 1011.1
20260505031514 12 112 0.0 0.0 0.00 0.00 0.00 91 1011.1
20260505030941 12 112 0.0 1.6 0.00 0.00 0.00 90 1011.5
20260505030344 12 111 1.6 1.6 0.00 0.00 0.00 91 1011.1
20260505025743 12 112 1.6 1.6 0.00 0.00 0.00 91 1011.1
20260505025129 12 112 0.0 0.0 0.00 0.00 0.00 91 1011.1
20260505024538 12 112 0.0 0.0 0.00 0.00 0.00 90 1011.1
20260505022123 12 112 0.0 0.0 0.00 0.00 0.00 89 1011.1
20260505021512 13 112 0.0 1.6 0.00 0.00 0.00 88 1011.1
20260505020926 13 112 0.0 0.0 0.00 0.00 0.00 86 1011.1
20260505020317 13 112 1.6 3.2 0.00 0.00 0.00 86 1011.1
20260505015154 13 112 1.6 3.2 0.00 0.00 0.00 84 1011.1
20260505014530 13 112 0.0 0.0 0.00 0.00 0.00 84 1011.1
20260505013918 14 111 3.2 3.2 0.00 0.00 0.00 82 1011.1
20260505013318 14 112 0.0 0.0 0.00 0.00 0.00 82 1011.1
20260505012711 14 112 0.0 0.0 0.00 0.00 0.00 81 1010.8
20260505012147 14 112 0.0 0.0 0.00 0.00 0.00 81 1010.8
20260505011536 15 112 0.0 0.0 0.00 0.00 0.00 80 1010.8
20260505010914 15 112 0.0 0.0 0.00 0.00 0.00 78 1011.1
20260505010331 15 112 0.0 0.0 0.00 0.00 0.00 79 1010.8
20260505005751 15 112 0.0 0.0 0.00 0.00 0.00 77 1011.1
20260505005121 16 112 0.0 0.0 0.00 0.00 0.00 76 1010.8
20260505004534 16 112 0.0 0.0 0.00 0.00 0.00 75 1010.4
20260505003929 16 112 0.0 0.0 0.00 0.00 0.00 73 1010.8
20260505003354 17 112 0.0 0.0 0.00 0.00 0.00 71 1010.8
20260505002111 18 118 1.6 1.6 0.00 0.00 0.00 65 1011.1
20260505001513 18 328 1.6 1.6 0.00 0.00 0.00 63 1011.1
20260505000916 19 159 0.0 0.0 0.00 0.00 0.00 59 1011.1
20260505000318 20 159 0.0 0.0 0.00 0.00 0.00 57 1011.1
20260504235715 20 194 0.0 0.0 0.00 0.00 0.00 54 1011.1
20260504234528 21 203 3.2 3.2 0.00 0.00 0.00 51 1011.1
20260504233933 21 193 1.6 6.4 0.00 0.00 0.00 51 1011.1
20260504233341 21 221 3.2 4.8 0.00 0.00 0.00 53 1011.1
20260504232715 21 242 6.4 12.9 0.00 0.00 0.00 51 1011.1
20260504232153 22 225 3.2 4.8 0.00 0.00 0.00 51 1011.1
20260504231519 22 243 6.4 12.9 0.00 0.00 0.00 48 1011.1
20260504230952 22 191 8.0 14.5 0.00 0.00 0.00 48 1011.5
20260504225715 22 235 6.4 9.7 0.00 0.00 0.00 49 1011.5
20260504225147 22 213 9.7 12.9 0.00 0.00 0.00 49 1011.5
20260504224511 22 242 9.7 16.1 0.00 0.00 0.00 49 1011.5
20260504223935 22 255 11.3 12.9 0.00 0.00 0.00 47 1011.8
20260504223316 22 260 9.7 12.9 0.00 0.00 0.00 46 1011.8
20260504222753 22 245 11.3 14.5 0.00 0.00 0.00 48 1011.8
20260504222112 21 243 9.7 12.9 0.00 0.00 0.00 48 1011.8
20260504221522 22 241 12.9 16.1 0.00 0.00 0.00 48 1011.8
20260504220927 21 263 16.1 27.4 0.00 0.00 0.00 47 1012.1
20260504220316 21 250 8.0 14.5 0.00 0.00 0.00 48 1011.5
20260504215123 21 257 11.3 16.1 0.00 0.00 0.00 47 1011.8
20260504214552 22 250 12.9 17.7 0.00 0.00 0.00 46 1011.8
20260504213951 22 246 8.0 17.7 0.00 0.00 0.00 46 1011.8
20260504211528 21 251 11.3 16.1 0.00 0.00 0.00 46 1011.8
20260504210950 21 257 9.7 16.1 0.00 0.00 0.00 46 1011.8
20260504210330 22 235 17.7 33.8 0.00 0.00 0.00 45 1011.5
20260504205734 22 248 14.5 17.7 0.00 0.00 0.00 44 1011.5
20260504205140 22 256 12.9 16.1 0.00 0.00 0.00 47 1011.5
20260504204542 23 256 14.5 19.3 0.00 0.00 0.00 43 1011.1
20260504203931 23 248 9.7 11.3 0.00 0.00 0.00 44 1011.1
20260504202734 22 231 6.4 12.9 0.00 0.00 0.00 46 1011.1
20260504202114 23 261 19.3 22.5 0.00 0.00 0.00 43 1011.5
20260504201541 22 242 19.3 25.7 0.00 0.00 0.00 44 1011.5
20260504200320 22 243 4.8 9.7 0.00 0.00 0.00 49 1011.5
20260504195752 22 220 3.2 4.8 0.00 0.00 0.00 54 1011.8
20260504195125 22 206 3.2 6.4 0.00 0.00 0.00 48 1012.1
20260504194552 21 236 3.2 4.8 0.00 0.00 0.00 51 1011.8
20260504193936 21 245 6.4 14.5 0.00 0.00 0.00 50 1011.8
20260504193337 21 233 9.7 19.3 0.00 0.00 0.00 49 1012.1
20260504192722 21 266 11.3 22.5 0.00 0.00 0.00 47 1012.1
20260504192139 22 269 19.3 24.1 0.00 0.00 0.00 46 1012.1
20260504191533 22 242 14.5 27.4 0.00 0.00 0.00 46 1012.1
20260504190949 21 245 8.0 14.5 0.00 0.00 0.00 52 1012.1
20260504185733 21 250 11.3 12.9 0.00 0.00 0.00 51 1012.1
20260504184535 21 252 14.5 19.3 0.00 0.00 0.00 49 1012.1
20260504183943 22 225 16.1 17.7 0.00 0.00 0.00 45 1012.1
20260504183329 22 266 9.7 22.5 0.00 0.00 0.00 48 1012.5
20260504182741 22 245 9.7 17.7 0.00 0.00 0.00 49 1012.5
20260504182142 22 241 6.4 16.1 0.00 0.00 0.00 47 1012.5
20260504181512 22 250 9.7 14.5 0.00 0.00 0.00 48 1012.5
20260504180923 21 224 12.9 16.1 0.00 0.00 0.00 49 1012.5
20260504180320 21 253 14.5 16.1 0.00 0.00 0.00 49 1012.5
20260504175748 22 174 9.7 19.3 0.00 0.00 0.00 52 1012.8
20260504174534 21 245 12.9 19.3 0.00 0.00 0.00 50 1012.8
20260504173931 21 250 9.7 24.1 0.00 0.00 0.00 51 1012.5
20260504172713 21 231 12.9 24.1 0.00 0.00 0.00 48 1013.2
20260504172134 20 247 12.9 24.1 0.00 0.00 0.00 51 1013.2
20260504171554 20 244 14.5 24.1 0.00 0.00 0.00 50 1013.2
20260504170919 20 230 9.7 16.1 0.00 0.00 0.00 49 1013.2
20260504170335 20 241 8.0 12.9 0.00 0.00 0.00 54 1013.5
20260504160347 18 225 16.1 22.5 0.00 0.00 0.00 53 1014.2
20260504141236 16 244 8.0 19.3 0.00 0.00 0.00 52 1014.9
20260504140653 16 258 19.3 19.3 0.00 0.00 0.00 51 1014.9
20260504130633 15 146 3.2 4.8 0.00 0.00 0.00 54 1014.9
20260504110627 5 91 1.6 1.6 0.00 0.00 0.00 96 1015.2